Date,TemperatureHighF,TemperatureAvgF,TemperatureLowF,DewpointHighF,DewpointAvgF,DewpointLowF,HumidityHigh,HumidityAvg,HumidityLow,PressureMaxIn,PressureMinIn,WindSpeedMaxMPH,WindSpeedAvgMPH,GustSpeedMaxMPH,PrecipitationSumIn
2013-1-1,32,24,11,27,13,1,88,64,38,29.86,29.61,27,11,33,0.00
2013-1-2,20,11,2,5,0,-7,75,61,48,30.04,29.84,26,10,32,0.00
2013-1-3,21,10,0,4,-1,-8,72,60,46,30.10,29.96,14,6,21,0.00
2013-1-4,34,18,3,26,13,0,89,78,64,29.96,29.73,13,3,21,0.00
2013-1-18,16,14,12,3,-4,-9,61,46,36,30.42,30.31,24,6,29,0.00
2013-1-19,40,31,14,30,23,4,94,74,59,30.39,29.90,27,7,34,0.00
2013-1-20,47,40,26,38,29,11,91,66,38,29.89,29.45,27,10,38,0.00
2013-1-21,25,20,15,18,4,-3,89,50,32,30.06,29.83,23,8,30,0.00
2013-1-22,21,14,9,18,5,-12,87,69,37,30.03,29.77,22,6,33,0.00
2013-1-23,8,3,-1,-10,-14,-17,53,46,38,30.09,30.02,25,13,32,0.00
2013-1-24,11,4,-3,-8,-13,-17,59,47,32,30.09,29.92,28,12,37,0.00
2013-1-25,18,11,3,1,-4,-9,67,54,37,30.21,30.08,20,8,27,0.00
2013-1-26,22,15,10,2,-3,-7,61,45,30,30.12,29.98,19,9,30,0.00
2013-1-27,23,16,10,3,0,-4,60,51,40,30.42,30.12,34,11,34,0.00
2013-1-28,27,20,10,21,6,-3,92,60,29,30.44,30.10,8,2,14,0.00
2013-1-29,38,28,18,35,24,16,92,87,76,30.24,30.09,5,1,11,0.03
2013-1-30,53,46,38,53,45,35,99,95,87,30.19,29.48,32,12,36,0.17
2013-1-31,56,47,32,55,39,14,99,76,47,29.47,28.87,39,21,60,0.08
2013-2-1,32,25,16,17,8,0,58,48,37,30.03,29.43,32,15,36,0.00
2013-2-2,24,19,12,19,7,-2,90,60,39,30.22,30.04,18,5,29,0.00
2013-2-3,28,24,21,22,19,14,94,79,66,30.08,29.68,18,8,22,0.00
2013-2-4,27,22,17,15,7,-5,77,55,38,29.88,29.63,27,13,36,0.00
2013-2-5,24,17,11,8,0,-6,73,48,29,30.05,29.88,19,5,25,0.00
2013-2-6,37,26,15,28,16,-6,89,67,32,30.29,29.93,16,6,28,0.00
2013-2-7,18,13,8,-2,-7,-13,61,43,25,30.61,30.29,15,5,22,0.00
2013-2-8,23,17,11,22,12,-4,94,83,51,30.62,29.88,30,12,46,0.00
2013-2-9,18,14,11,15,12,9,93,88,71,30.08,29.64,43,21,56,0.01
2013-2-10,33,22,14,17,6,2,79,52,28,30.37,30.09,23,10,31,0.00
2013-2-11,41,28,10,40,25,7,96,89,68,30.37,29.58,11,1,19,0.60
2013-2-12,42,37,32,34,30,28,95,79,59,29.78,29.51,19,7,28,0.01
2013-2-13,41,35,30,29,26,23,87,70,49,29.82,29.74,18,4,24,0.00
2013-2-14,39,32,24,25,20,16,88,64,41,30.02,29.72,19,6,24,0.00
2013-2-15,44,34,23,39,31,21,95,88,77,30.02,29.93,24,4,29,0.00
2013-2-16,37,32,26,33,30,24,96,91,82,29.95,29.76,19,6,25,0.00
2013-2-17,26,22,18,23,16,7,88,77,58,29.75,29.08,46,22,57,0.00
2013-2-18,31,22,14,8,4,-1,58,46,33,30.02,29.38,39,18,48,0.00
2013-2-19,43,32,18,40,17,-1,91,58,26,30.11,29.64,18,5,26,0.29
2013-2-20,45,37,28,43,29,18,94,74,56,29.63,29.42,20,10,27,0.36
2013-2-21,34,28,23,27,18,11,85,68,55,30.11,29.63,19,10,27,0.00
2013-2-22,38,32,27,26,23,21,83,70,53,30.39,30.12,20,5,26,0.00
2013-2-23,36,32,27,31,28,22,92,85,79,30.38,30.06,21,6,21,0.00
2013-2-24,32,31,29,30,29,26,94,93,89,30.07,29.80,10,5,18,0.00
2013-2-25,40,30,22,26,20,13,92,69,36,30.26,29.91,11,3,15,0.08
2013-2-26,43,33,24,32,27,22,91,78,52,30.38,30.27,9,1,11,0.00
2013-2-27,39,34,28,34,31,26,98,87,75,30.29,29.73,30,15,39,0.07
2013-2-28,42,39,33,42,38,32,99,99,97,29.72,29.54,24,9,31,0.10
2013-3-1,34,33,32,33,32,30,98,95,89,29.66,29.52,15,7,22,0.04
2013-3-2,36,33,31,33,31,29,98,91,77,29.65,29.60,16,8,22,0.05
2013-3-3,41,36,33,34,32,29,96,85,69,29.61,29.51,20,6,21,0.02
2013-3-4,35,33,31,32,29,26,94,86,76,29.66,29.48,21,11,24,0.01
2013-3-5,43,37,34,35,33,32,93,85,67,30.13,29.67,18,10,24,0.01
2013-3-6,38,35,33,33,30,27,91,82,76,30.28,30.14,26,7,32,0.01
2013-3-7,38,35,33,28,27,26,80,74,64,30.23,30.08,30,17,37,0.00
2013-3-8,48,38,30,29,25,21,94,62,36,30.20,30.04,31,15,36,0.00
2013-3-9,42,36,30,30,27,24,82,70,56,30.39,30.20,16,8,26,0.00
2013-3-10,36,32,26,32,28,24,92,84,75,30.46,30.33,12,5,14,0.00
2013-3-11,42,39,36,41,37,33,96,90,86,30.35,30.20,20,9,23,0.00
2013-3-12,48,45,42,46,44,40,98,94,88,30.20,29.82,22,10,31,0.31
2013-3-13,48,44,36,48,41,28,99,88,67,29.79,29.66,20,8,34,0.12
2013-3-14,42,34,22,31,26,16,94,74,51,29.72,29.62,24,7,30,0.00
2013-3-15,35,26,18,20,13,8,79,59,34,29.79,29.62,24,9,28,0.00
2013-3-16,35,29,24,23,15,9,87,59,35,29.91,29.63,18,6,23,0.00
2013-3-17,31,25,17,14,6,-3,81,47,28,30.32,29.91,27,10,36,0.00
2013-3-18,34,23,11,19,5,-2,71,48,23,30.46,30.31,16,4,23,0.00
2013-3-19,33,29,25,29,25,16,96,88,59,30.32,29.63,24,8,30,0.00
2013-3-20,35,28,20,28,23,18,93,82,66,29.73,29.60,15,8,30,0.03
2013-3-21,40,32,25,29,22,13,90,69,36,29.79,29.62,10,4,16,0.00
2013-3-22,39,31,23,24,19,15,92,65,39,29.65,29.59,15,6,23,0.00
2013-3-23,40,34,26,26,21,18,71,61,47,29.64,29.47,31,12,34,0.00
2013-3-24,45,38,32,27,25,23,77,61,43,29.79,29.62,26,8,28,0.00
2013-3-25,43,37,28,33,30,25,90,76,64,29.78,29.60,15,5,20,0.00
2013-3-26,47,40,32,30,26,24,75,60,42,29.72,29.55,15,7,27,0.00
2013-3-27,42,38,33,38,33,27,91,81,69,29.86,29.70,15,6,22,0.79
2013-3-28,49,41,35,34,32,29,86,73,52,29.97,29.86,13,5,15,0.00
2013-3-29,51,44,37,36,33,30,84,66,48,30.01,29.94,15,5,24,0.00
2013-3-30,51,41,33,34,28,17,84,63,26,30.09,29.98,16,3,25,0.00
2013-3-31,51,39,27,38,26,17,87,63,27,30.14,29.90,9,2,18,0.00
2013-4-1,48,42,35,42,38,26,95,86,68,29.89,29.49,23,7,31,0.82
2013-4-2,36,32,28,22,16,9,68,53,33,29.83,29.66,18,10,28,0.00
2013-4-3,42,35,29,21,16,11,71,48,33,30.02,29.80,33,16,44,0.00
2013-4-4,47,38,31,36,19,8,81,48,21,30.21,29.99,27,13,34,0.00
2013-4-5,47,42,38,38,34,25,83,73,44,29.99,29.67,23,12,37,0.00
2013-4-6,40,34,29,28,11,2,68,41,22,30.36,29.80,28,13,43,0.00
2013-4-7,45,38,25,39,28,9,86,66,46,30.38,30.00,24,4,24,0.00
2013-4-8,58,47,38,40,36,33,93,68,41,30.17,29.92,22,6,30,0.00
2013-4-9,44,41,38,41,39,35,95,91,76,30.16,29.91,9,1,10,0.21
2013-4-10,50,43,38,46,41,37,96,92,81,30.02,29.90,8,2,14,0.16
2013-4-11,49,43,39,42,30,15,96,65,26,30.21,29.88,24,6,28,0.03
2013-4-12,39,35,33,33,24,15,94,67,40,30.28,29.91,10,2,13,0.30
2013-4-13,44,38,33,37,34,32,95,87,74,29.94,29.80,13,4,16,0.10
2013-4-14,49,41,36,41,38,34,95,90,72,30.19,29.92,15,1,19,0.27
2013-4-15,47,40,32,40,36,30,96,86,73,30.46,30.19,8,2,12,0.00
2013-4-16,50,45,40,45,40,37,94,84,64,30.46,29.97,16,5,28,0.04
2013-4-17,59,52,44,49,33,22,91,52,25,30.37,29.97,25,12,30,0.00
2013-4-18,46,42,33,38,30,20,83,63,37,30.50,30.22,10,2,19,0.00
2013-4-19,61,51,44,56,49,38,96,91,74,30.21,29.69,18,6,28,0.00
2013-4-20,57,51,46,56,44,27,97,77,42,30.14,29.60,16,8,31,0.34
2013-4-21,49,42,33,28,22,14,78,48,25,30.72,30.15,20,9,26,0.00
2013-4-22,46,39,30,37,28,18,85,66,44,30.84,30.69,15,6,19,0.00
2013-4-23,43,40,36,42,37,31,97,89,73,30.68,30.22,19,7,22,0.01
2013-4-24,57,48,43,54,47,42,98,95,88,30.22,29.77,18,8,27,0.23
2013-4-25,60,52,45,48,38,27,96,64,29,30.30,29.83,21,8,27,0.05
2013-4-26,52,45,34,37,33,29,86,64,46,30.46,30.30,12,5,16,0.00
2013-4-27,55,44,34,40,35,30,94,75,42,30.45,30.34,7,2,10,0.00
2013-4-28,59,48,36,43,38,34,94,71,40,30.37,30.28,9,2,14,0.00
2013-4-29,60,48,36,46,40,34,95,77,42,30.32,30.26,7,1,11,0.00
2013-4-30,62,49,36,48,38,32,96,72,32,30.40,30.28,7,2,12,0.00
2013-5-1,59,48,35,43,35,27,94,66,30,30.50,30.40,12,3,15,0.00
2013-5-2,60,47,38,46,39,32,95,75,37,30.55,30.45,7,1,14,0.00
2013-5-3,62,49,43,46,41,37,90,73,54,30.58,30.41,10,3,14,0.00
2013-5-4,56,46,38,41,39,36,94,77,51,30.43,30.36,10,2,13,0.00
2013-5-5,53,45,35,42,38,33,96,79,59,30.37,30.29,13,4,18,0.00
2013-5-6,57,45,34,48,41,33,96,85,66,30.31,30.21,11,3,15,0.00
2013-5-7,62,50,42,52,47,41,96,89,67,30.21,30.14,13,4,15,0.00
2013-5-8,69,55,44,61,52,43,97,89,72,30.29,30.18,9,2,14,0.00
2013-5-9,54,52,50,53,50,49,97,95,93,30.17,29.94,5,1,8,0.31
2013-5-10,62,53,49,55,51,48,97,93,78,30.00,29.91,9,2,14,0.00
2013-5-11,58,53,48,55,51,47,97,95,91,29.98,29.73,14,3,20,0.30
2013-5-12,60,54,50,57,52,44,97,94,73,29.73,29.56,18,3,24,0.22
2013-5-13,54,49,43,45,37,32,94,66,47,30.01,29.74,20,7,28,0.00
2013-5-14,54,48,43,41,35,29,86,61,42,30.03,29.95,18,6,23,0.00
2013-5-15,58,49,39,47,37,29,94,68,34,30.03,29.70,18,4,22,0.32
2013-5-16,66,57,48,55,48,42,96,76,48,29.79,29.59,19,6,21,0.00
2013-5-17,62,54,44,45,40,35,88,61,38,30.22,29.80,24,9,30,0.00
2013-5-18,56,48,40,45,42,38,94,78,58,30.38,30.22,7,1,13,0.00
2013-5-19,57,49,43,48,45,41,96,85,69,30.42,30.28,7,1,9,0.03
2013-5-20,64,55,49,59,53,48,96,92,81,30.27,29.95,6,1,14,0.85
2013-5-21,53,49,47,52,47,46,96,95,94,30.10,30.00,7,1,9,0.33
2013-5-22,53,49,47,50,48,46,97,95,90,30.12,29.95,7,1,10,0.75
2013-5-23,59,53,47,58,52,46,97,96,90,29.99,29.86,10,2,15,0.01
2013-5-24,61,57,51,60,56,48,98,96,89,29.86,29.67,27,7,28,1.44
2013-5-25,51,50,48,50,48,47,97,95,90,29.83,29.68,20,7,29,0.28
2013-5-26,54,49,46,47,45,41,97,89,70,29.96,29.62,18,5,26,0.31
2013-5-27,66,54,42,43,37,29,87,58,26,30.18,29.97,26,10,33,0.00
2013-5-28,65,53,39,45,41,38,95,69,37,30.26,30.18,12,2,18,0.00
2013-5-29,54,51,47,53,50,45,97,96,92,30.25,30.02,6,1,11,0.14
2013-5-30,78,63,51,65,58,50,98,83,53,30.04,29.99,16,2,23,0.00
2013-5-31,81,68,56,65,60,55,97,78,56,30.06,29.90,7,1,18,0.00
2013-6-1,77,67,58,67,61,56,94,80,70,29.93,29.83,12,3,18,0.00
2013-6-2,74,65,60,64,60,57,96,85,70,29.84,29.73,18,4,29,0.07
2013-6-3,67,60,57,62,58,56,97,92,84,29.85,29.74,11,4,20,0.02
2013-6-4,64,59,51,58,47,40,96,67,43,30.05,29.78,24,7,30,0.00
2013-6-5,64,56,47,50,45,38,89,66,39,30.18,30.05,16,5,23,0.00
2013-6-6,68,57,46,54,48,43,95,75,41,30.24,30.17,5,1,8,0.00
2013-6-7,59,54,51,52,50,43,96,85,55,30.19,29.97,6,1,9,0.50
2013-6-8,65,58,51,59,55,50,96,90,76,29.98,29.64,22,5,26,1.49
2013-6-9,65,60,55,58,56,53,95,87,73,30.16,29.98,8,1,13,0.00
2013-6-10,68,58,52,55,53,51,96,84,63,30.24,30.09,7,1,12,0.00
2013-6-11,56,53,52,54,52,51,97,95,94,30.08,29.53,9,1,14,1.10
2013-6-12,59,56,53,57,54,52,97,92,84,29.74,29.50,20,9,28,0.07
2013-6-13,67,58,53,55,53,51,95,83,62,29.80,29.74,9,2,13,0.04
2013-6-14,66,58,53,57,52,47,95,84,57,29.76,29.69,7,1,9,0.01
2013-6-15,75,62,51,53,48,40,96,64,29,29.90,29.74,18,6,23,0.01
2013-6-16,73,61,51,57,53,49,95,77,47,29.92,29.73,7,1,12,0.00
2013-6-17,72,63,54,63,58,53,97,85,65,29.87,29.73,14,3,16,0.34
2013-6-18,66,61,56,59,57,52,97,86,66,29.99,29.85,6,1,9,0.00
2013-6-19,73,62,51,56,50,42,95,70,36,30.14,29.93,15,4,19,0.00
2013-6-20,74,61,49,56,52,47,94,74,48,30.26,30.15,10,2,13,0.00
2013-6-21,73,62,52,60,56,50,96,81,55,30.24,30.19,7,1,13,0.00
2013-6-22,73,63,56,63,59,55,95,86,62,30.22,30.13,6,1,10,0.00
2013-6-23,72,65,61,65,61,59,95,88,78,30.17,29.96,9,2,13,0.02
2013-6-24,87,74,63,71,66,62,96,78,53,29.95,29.82,14,4,21,0.00
2013-6-25,80,73,66,69,66,64,96,79,60,29.85,29.73,41,3,54,0.59
2013-6-26,75,64,57,71,63,56,97,94,84,29.90,29.70,5,1,11,0.25
2013-6-27,60,56,54,58,55,52,97,95,91,29.91,29.87,4,1,7,0.09
2013-6-28,62,58,55,62,58,54,98,97,97,29.89,29.59,5,1,13,0.64
2013-6-29,67,63,60,66,62,60,98,97,91,29.73,29.59,11,2,15,0.05
2013-6-30,66,63,60,65,62,59,98,97,94,29.96,29.73,9,3,14,0.00
2013-7-1,74,65,62,70,64,61,98,96,86,30.13,29.95,7,1,11,0.10
2013-7-2,65,61,58,64,60,57,98,97,95,30.24,30.11,8,0,8,0.51
2013-7-3,73,63,57,67,60,57,98,92,79,30.22,30.13,8,2,14,0.01
2013-7-4,84,71,62,73,67,61,98,88,70,30.17,30.06,8,2,14,0.00
2013-7-5,85,75,66,73,69,65,98,83,62,30.11,30.00,14,3,19,0.06
2013-7-6,86,76,68,74,70,66,98,81,55,30.03,29.92,19,3,22,0.00
2013-7-7,86,76,66,68,64,60,89,68,41,29.96,29.90,18,5,25,0.00
2013-7-8,74,67,62,68,64,58,96,89,76,30.10,29.91,8,0,11,0.84
2013-7-9,67,63,61,64,61,59,96,93,87,30.15,30.09,3,0,6,0.03
2013-7-10,66,62,60,62,60,59,98,95,87,30.12,29.80,4,0,8,0.04
2013-7-11,79,69,64,71,67,64,98,93,71,29.97,29.77,10,2,14,0.01
2013-7-12,80,69,59,65,59,57,93,73,50,30.23,29.97,7,2,10,0.00
2013-7-13,78,68,58,64,60,57,96,80,56,30.33,30.23,8,2,11,0.00
2013-7-14,85,72,62,72,66,61,97,81,60,30.30,30.19,6,1,11,0.00
2013-7-15,88,75,65,70,66,63,97,76,46,30.19,30.06,13,2,15,0.00
2013-7-16,88,78,66,73,68,64,91,74,55,30.20,30.08,7,1,8,0.04
2013-7-17,75,70,62,69,65,59,95,86,78,30.20,29.95,11,3,22,0.24
2013-7-18,85,74,68,70,66,59,97,78,44,30.01,29.92,11,2,14,0.01
2013-7-19,80,73,66,73,69,65,96,88,73,29.97,29.65,11,4,23,0.00
2013-7-20,79,75,69,72,69,65,94,82,71,29.78,29.61,11,3,18,0.03
2013-7-21,75,67,59,66,58,55,93,73,54,30.05,29.78,9,1,13,0.00
2013-7-22,73,64,57,64,58,53,97,83,51,30.07,29.96,5,1,8,0.00
2013-7-23,67,64,60,67,63,59,98,97,94,29.96,29.55,5,0,5,0.29
2013-7-24,75,68,61,72,64,53,98,89,68,29.98,29.58,16,4,21,0.00
2013-7-25,70,62,57,61,55,49,95,77,58,30.14,29.98,16,4,20,0.07
2013-7-26,67,64,60,65,63,58,96,94,90,30.09,29.87,20,9,23,0.36
2013-7-27,74,67,61,65,63,60,96,85,70,30.07,29.89,13,4,19,0.04
2013-7-28,71,64,59,66,62,58,98,94,81,30.08,30.03,4,0,10,0.02
2013-7-29,72,65,60,66,62,59,97,92,80,30.09,30.01,5,1,14,0.09
2013-7-30,77,68,61,66,62,58,98,84,52,30.07,30.01,12,2,19,0.00
2013-7-31,76,66,57,62,59,55,96,80,49,30.12,30.06,10,2,15,0.00
2013-8-1,75,66,57,68,62,56,98,89,69,30.07,29.92,7,1,9,0.00
2013-8-2,70,64,62,67,63,61,97,96,90,29.91,29.78,5,1,12,0.44
2013-8-3,72,65,59,65,61,58,98,89,75,29.84,29.74,14,2,19,0.02
2013-8-4,76,65,58,61,58,54,94,79,51,29.82,29.74,15,4,24,0.07
2013-8-5,71,62,56,55,53,49,89,72,51,30.03,29.82,21,7,24,0.00
2013-8-6,72,61,50,57,52,47,94,74,54,30.13,30.03,9,2,16,0.00
2013-8-7,73,66,52,63,59,51,97,81,59,30.22,30.16,8,1,11,0.00
2013-8-8,67,63,59,65,62,58,97,95,91,30.16,30.05,4,1,11,0.65
2013-8-9,70,67,64,69,66,63,98,97,95,30.05,29.73,9,2,18,1.23
2013-8-10,78,71,63,68,58,48,98,69,36,29.99,29.73,19,7,24,0.00
2013-8-11,74,63,53,59,54,50,92,73,47,30.05,29.98,11,3,19,0.00
2013-8-12,75,65,56,62,59,55,95,81,59,30.01,29.92,7,2,14,0.00
2013-8-13,72,64,58,67,62,56,97,93,84,29.93,29.73,9,1,10,0.00
2013-8-14,75,65,60,67,59,50,98,83,51,29.86,29.62,15,3,24,0.00
2013-8-15,71,63,56,59,54,50,93,72,51,30.09,29.87,12,5,21,0.00
2013-8-16,74,63,54,61,56,53,96,81,50,30.20,30.08,11,2,15,0.00
2013-8-17,76,64,55,61,57,52,97,79,49,30.28,30.20,13,3,18,0.00
2013-8-18,74,63,53,62,58,52,97,83,59,30.29,30.06,6,1,11,0.00
2013-8-19,77,68,58,65,61,57,97,82,62,30.06,29.88,8,2,16,0.00
2013-8-20,80,70,62,67,63,60,94,80,64,30.09,29.95,9,2,13,0.00
2013-8-21,81,69,60,68,63,59,96,83,59,30.14,29.99,9,2,14,0.00
2013-8-22,75,69,60,67,64,59,97,87,73,30.00,29.77,9,2,16,0.00
2013-8-23,74,68,62,65,57,51,95,70,44,30.14,29.76,19,9,23,0.00
2013-8-24,75,62,51,56,51,45,95,69,38,30.32,30.17,10,3,13,0.00
2013-8-25,71,38,52,60,1,-100,96,58,56,30.37,30.17,14,3,20,0.00
2013-8-26,71,64,58,64,61,56,97,90,79,30.16,29.88,9,2,20,0.02
2013-8-27,80,69,61,68,64,60,97,86,65,29.92,29.85,10,1,10,0.00
2013-8-28,78,65,60,68,62,59,97,90,71,30.02,29.90,5,1,10,0.03
2013-8-29,67,63,55,64,60,54,97,88,77,30.12,30.00,13,2,18,0.00
2013-8-30,72,62,53,64,58,52,97,88,74,30.03,29.78,11,2,16,0.00
2013-8-31,77,67,62,72,65,62,98,93,78,29.84,29.78,16,1,19,0.14
2013-9-1,81,70,64,72,68,63,98,91,74,29.95,29.78,5,1,8,0.12
2013-9-2,67,64,60,66,63,59,98,97,96,29.95,29.76,6,1,9,2.33
2013-9-3,74,67,63,69,66,63,98,95,84,29.78,29.71,8,2,11,0.01
2013-9-4,75,67,61,65,60,57,98,80,56,29.90,29.74,14,4,21,0.00
2013-9-5,66,59,53,59,53,44,95,80,50,30.14,29.86,13,4,18,0.26
2013-9-6,65,56,44,55,47,41,96,75,43,30.23,30.05,11,4,18,0.00
2013-9-7,68,61,53,59,56,51,94,82,60,30.06,29.80,14,3,18,0.00
2013-9-8,64,59,50,59,51,40,95,75,49,30.07,29.71,23,8,32,0.39
2013-9-9,61,54,42,57,47,40,96,79,49,30.22,30.07,15,4,19,0.00
2013-9-10,63,60,57,60,58,55,97,92,86,30.14,30.06,8,2,15,0.00
2013-9-11,75,66,60,70,64,59,98,94,81,30.07,29.91,9,3,21,0.19
2013-9-12,70,66,63,68,65,62,97,96,90,30.02,29.67,9,2,15,0.16
2013-9-13,71,64,61,67,63,60,98,96,84,29.70,29.59,19,2,27,1.07
2013-9-14,69,62,55,60,57,52,98,86,64,30.02,29.70,12,4,16,0.00
2013-9-15,62,56,48,56,51,47,98,85,60,30.14,30.02,13,3,21,0.00
2013-9-16,63,56,47,57,51,38,97,85,69,30.26,29.98,24,7,24,0.00
2013-9-17,64,51,40,49,42,37,95,73,48,30.40,30.27,19,6,21,0.00
2013-9-18,65,54,43,53,48,42,97,82,56,30.31,30.11,9,2,14,0.00
2013-9-19,70,57,46,54,50,45,97,79,51,30.13,30.03,11,1,14,0.00
2013-9-20,73,59,48,57,52,47,96,81,51,30.12,30.04,7,1,8,0.00
2013-9-21,64,60,56,60,58,55,98,93,86,30.07,29.81,8,2,16,0.00
2013-9-22,65,62,54,63,59,49,96,90,77,29.80,29.62,10,4,21,0.26
2013-9-23,56,52,47,49,44,41,86,74,63,29.93,29.74,21,10,29,0.00
2013-9-24,54,50,46,45,44,41,86,78,69,29.92,29.83,20,8,24,0.01
2013-9-25,60,54,47,50,47,43,92,78,63,29.98,29.86,18,9,21,0.00
2013-9-26,62,55,46,52,49,44,94,80,65,30.13,29.98,21,8,23,0.00
2013-9-27,71,60,53,55,52,50,95,78,53,30.25,30.13,16,4,19,0.00
2013-9-28,69,56,48,56,52,47,96,84,61,30.35,30.25,6,1,8,0.00
2013-9-29,63,52,44,55,48,43,98,89,65,30.29,30.15,7,1,10,0.01
2013-9-30,63,53,46,54,50,45,98,89,67,30.16,29.98,7,1,9,0.00
2013-10-1,74,59,50,55,51,47,96,77,45,29.97,29.82,18,5,22,0.00
2013-10-2,77,63,51,62,55,50,98,79,51,29.89,29.74,13,2,21,0.00
2013-10-3,73,60,48,54,49,46,96,71,41,30.07,29.89,18,3,23,0.00
2013-10-4,69,58,48,54,50,43,95,77,40,30.10,30.03,14,1,14,0.00
2013-10-5,61,55,48,51,47,44,95,75,59,30.17,30.10,5,0,7,0.00
2013-10-6,56,51,46,48,43,38,95,76,53,30.30,30.17,5,1,9,0.06
2013-10-7,65,58,49,64,57,47,98,96,91,30.25,29.81,19,3,35,0.69
2013-10-8,62,55,43,61,46,39,97,74,49,30.41,29.84,21,7,30,0.04
2013-10-9,61,48,39,45,41,38,96,80,49,30.50,30.39,5,1,8,0.00
2013-10-10,61,49,38,50,44,38,98,84,51,30.39,30.22,8,1,11,0.00
2013-10-11,65,54,46,54,50,45,97,86,57,30.21,30.14,7,1,7,0.00
2013-10-12,58,53,46,53,49,45,96,86,69,30.44,30.21,6,1,11,0.00
2013-10-13,57,50,41,48,44,40,96,81,58,30.49,30.41,7,1,11,0.00
2013-10-14,56,49,39,50,45,38,98,87,70,30.41,30.27,8,2,14,0.00
2013-10-15,66,56,51,54,52,49,95,85,64,30.30,30.23,9,1,9,0.00
2013-10-16,58,55,53,55,53,52,97,94,89,30.24,29.91,8,1,8,0.00
2013-10-17,62,55,50,58,54,49,98,95,86,29.92,29.75,7,2,12,0.00
2013-10-18,66,58,52,59,52,48,98,83,54,29.83,29.59,30,4,32,0.30
2013-10-19,59,54,46,51,46,41,89,76,55,29.94,29.79,13,3,20,0.00
2013-10-20,61,55,48,54,44,33,95,68,36,29.95,29.68,22,6,27,0.01
2013-10-21,58,50,40,50,42,37,91,74,53,30.09,29.95,12,4,20,0.00
2013-10-22,62,55,48,55,51,44,93,86,73,30.00,29.70,12,3,16,0.04
2013-10-23,52,45,37,43,39,33,97,81,52,29.78,29.59,4,0,8,0.01
2013-10-24,50,45,40,40,34,27,86,66,44,29.81,29.59,15,7,22,0.00
2013-10-25,49,43,37,35,32,29,84,67,50,30.09,29.82,15,8,22,0.00
2013-10-26,52,43,33,41,34,27,79,70,55,30.13,29.88,16,6,32,0.00
2013-10-27,53,46,42,43,38,31,93,74,57,30.01,29.79,14,5,22,0.12
2013-10-28,52,42,34,42,33,26,85,69,50,30.35,30.01,20,5,36,0.00
2013-10-29,46,37,30,31,26,18,94,67,33,30.46,30.35,12,4,15,0.00
2013-10-30,47,37,29,32,29,25,95,75,43,30.37,30.18,14,3,20,0.00
2013-10-31,58,45,29,57,42,28,96,91,78,30.27,29.81,11,3,27,0.45
2013-11-1,63,59,57,61,57,53,97,92,83,29.80,29.37,26,9,40,0.52
2013-11-2,60,52,44,52,47,42,97,83,58,29.76,29.56,18,3,24,0.00
2013-11-3,47,39,32,40,27,20,88,65,43,30.42,29.77,26,14,30,0.00
2013-11-4,40,32,27,24,20,17,85,62,41,30.73,30.42,14,6,22,0.00
2013-11-5,46,36,27,35,30,23,95,80,62,30.74,30.52,11,2,14,0.00
2013-11-6,53,46,35,50,42,34,97,88,77,30.52,30.02,19,4,21,0.00
2013-11-7,56,52,40,55,48,33,97,89,72,30.01,29.64,15,8,23,0.15
2013-11-8,45,40,35,33,27,24,76,62,47,29.98,29.76,28,10,29,0.00
2013-11-9,43,37,30,28,24,21,88,61,42,30.12,29.98,21,8,28,0.00
2013-11-10,45,40,31,43,38,27,97,91,79,30.10,29.72,9,2,15,0.11
2013-11-11,47,41,37,37,33,29,95,75,58,30.00,29.74,21,6,26,0.01
2013-11-12,46,34,26,34,22,16,78,62,54,30.10,29.83,20,10,32,0.00
2013-11-13,33,28,24,18,14,12,68,57,45,30.22,30.09,14,6,24,0.00
2013-11-14,47,36,26,31,26,17,94,68,48,30.11,29.99,12,4,21,0.00
2013-11-15,50,37,29,38,32,27,95,82,57,30.20,30.09,12,2,13,0.00
2013-11-16,52,39,32,45,36,30,96,88,76,30.36,30.20,7,1,9,0.00
2013-11-17,52,46,35,51,44,34,97,92,80,30.38,29.98,8,2,15,0.02
2013-11-18,58,52,43,57,50,41,98,93,81,29.96,29.49,12,4,26,0.42
2013-11-19,47,38,32,41,25,18,85,60,48,30.18,29.57,30,14,38,0.00
2013-11-20,38,32,29,19,15,12,62,50,34,30.64,30.18,24,11,31,0.00
2013-11-21,42,25,24,30,0,-100,91,59,33,30.65,30.35,12,1,13,0.00
2013-11-22,40,36,31,34,28,22,92,76,50,30.34,29.78,7,1,9,0.00
2013-11-23,39,35,28,37,24,16,95,65,40,29.79,29.66,31,11,39,0.02
2013-11-24,29,23,20,22,8,3,76,53,45,29.97,29.65,34,20,46,0.00
2013-11-25,27,21,17,18,4,-100,74,50,34,30.33,29.97,29,11,35,0.00
2013-11-26,37,32,26,31,27,16,94,82,56,30.33,30.19,19,5,25,0.01
2013-11-27,58,50,33,57,49,32,98,96,88,30.17,29.14,22,6,34,2.75
2013-11-28,40,28,19,37,12,-100,92,61,42,30.39,29.27,28,13,39,0.00
2013-11-29,25,21,17,12,9,6,76,62,43,30.75,30.39,18,8,23,0.00
2013-11-30,35,23,14,29,14,8,85,70,45,30.83,30.45,9,3,15,0.00
2013-12-1,39,36,33,37,33,27,97,89,68,30.44,30.09,11,3,16,0.52
2013-12-2,46,42,36,44,40,36,97,95,91,30.09,29.92,7,2,15,0.52
2013-12-3,42,38,34,39,36,31,97,94,84,29.92,29.84,16,8,20,0.00
2013-12-4,41,34,28,31,28,26,93,79,63,30.23,29.87,19,7,26,0.00
2013-12-5,48,38,27,48,37,25,97,93,86,30.28,29.93,5,1,10,0.02
2013-12-6,50,43,36,49,40,30,98,89,71,30.12,29.86,12,4,13,0.04
2013-12-7,37,33,25,32,19,10,90,59,44,30.42,30.07,25,10,34,0.00
2013-12-8,26,23,21,17,6,-100,76,56,45,30.61,30.41,23,6,30,0.00
2013-12-9,38,30,24,37,25,11,97,82,58,30.57,29.84,14,4,19,0.14
2013-12-10,34,28,22,32,25,15,95,89,72,29.90,29.73,18,5,21,0.00
2013-12-11,29,24,18,18,16,13,85,72,58,30.13,29.91,23,9,27,0.00
2013-12-12,21,15,11,12,2,-4,70,59,43,30.25,30.02,24,8,29,0.00
2013-12-13,24,17,6,12,4,-6,72,57,37,30.39,29.91,29,11,37,0.00
2013-12-14,18,9,0,16,-3,-10,90,60,39,30.64,30.40,14,4,21,0.00
2013-12-15,24,16,13,22,6,-100,94,81,82,30.39,29.35,27,11,35,0.00
2013-12-16,24,15,6,14,6,-5,94,69,45,30.22,29.68,22,8,30,0.00
2013-12-17,17,9,-4,15,3,-10,93,78,60,30.33,30.05,13,5,16,0.00
2013-12-18,25,19,12,20,16,9,93,89,78,30.03,29.85,18,7,21,0.00
2013-12-19,32,21,12,27,-5,-100,91,66,78,30.10,29.93,10,3,14,0.02
2013-12-20,43,34,27,39,32,24,96,91,82,30.15,29.92,2,0,6,0.09
2013-12-21,37,34,31,36,33,30,97,96,94,29.97,29.85,15,1,15,0.18
2013-12-22,34,31,28,32,30,27,97,96,94,30.10,29.89,13,5,21,0.32
2013-12-23,33,31,29,32,30,28,97,97,96,30.12,29.98,9,4,11,0.00
2013-12-24,34,25,14,32,21,11,97,87,79,30.17,30.07,16,9,23,0.00
2013-12-25,18,12,7,14,8,3,92,84,78,30.58,30.17,21,8,25,0.00
2013-12-26,35,24,12,34,22,10,96,92,90,30.54,30.07,10,3,13,0.00
2013-12-27,31,22,14,28,20,13,94,91,82,30.22,30.12,9,3,12,0.00
2013-12-28,36,28,19,32,26,18,97,91,85,30.18,29.95,10,3,20,0.01
2013-12-29,38,30,22,37,29,20,97,95,93,30.05,29.51,14,2,16,0.64
2013-12-30,31,16,7,30,-7,-100,96,70,72,30.20,29.47,23,9,33,0.00
2013-12-31,12,6,0,5,1,-4,90,80,63,30.20,30.06,12,5,18,0.00
2014-1-1,20,11,2,13,-3,-100,90,71,60,30.43,30.13,25,6,27,0.00
2014-1-2,7,-1,-4,-2,-14,-100,87,73,66,30.48,30.01,29,12,31,0.00